RADUGA-1 1 [-]

Last updated on Tue Jun 27 2023 00:03:02 GMT+0000 (Coordinated Universal Time)

1 20083U 89048A 23176.77822619 -.00000259 00000+0 00000+0 0 9998 2 20083 13.8606 342.7789 0023582 124.9313 240.6286 0.98711424120537
UTC large
Height (km)
Speed (km/s)
/
Latitude / Longitude
Inclination (degrees)
Orbital Period (minutes)
Azimuth
Elevation
Range (km)
Doppler Factor

Next 0 passes for location: London (51.5072 / 0.1276)

Sorry there are no passes over London.
RADUGA-1 1 [-]